EW9282 Weather Reports


time (UTC)temp
C
wind
direction
speed
KPH
gust
KPH
rain 1hr
cm
rain 24hr
cm
rain mn
cm
humidity
%
barometer
mb
20260504081253 5 145 0.0 3.2 0.00 0.00 0.00 84 1005.7
20260504080746 5 155 0.0 1.6 0.00 0.00 0.00 84 1005.8
20260504080517 5 155 0.0 1.6 0.00 0.00 0.00 83 1005.8
20260504070229 5 243 0.0 3.2 0.00 0.00 0.00 78 1005.8
20260504060210 5 214 0.0 3.2 0.00 0.00 0.00 69 1006.0
20260504050149 3 175 0.0 1.6 0.00 0.00 0.00 67 1006.2
20260504045646 3 175 0.0 1.6 0.00 0.00 0.00 67 1006.2
20260504045147 4 175 0.0 3.2 0.00 0.00 0.00 67 1006.3
20260504044643 4 175 0.0 3.2 0.00 0.00 0.00 66 1006.3
20260504044142 4 201 0.0 3.2 0.00 0.00 0.00 66 1006.4
20260504043643 4 190 0.0 3.2 0.00 0.00 0.00 65 1006.5
20260504043142 4 203 0.0 1.6 0.00 0.00 0.00 65 1006.6
20260504042642 4 208 0.0 1.6 0.00 0.00 0.00 64 1006.6
20260504042141 4 226 0.0 3.2 0.00 0.00 0.00 64 1006.6
20260504041934 4 188 0.0 3.2 0.00 0.00 0.00 63 1006.5
20260504041140 4 175 0.0 3.2 0.00 0.00 0.00 63 1006.5
20260504040636 4 182 0.0 3.2 0.00 0.00 0.00 63 1006.5
20260504040405 5 225 0.0 3.2 0.00 0.00 0.00 62 1006.5
20260504035631 5 200 0.0 1.6 0.00 0.00 0.00 62 1006.5
20260504035133 5 200 0.0 3.2 0.00 0.00 0.00 62 1006.5
20260504034901 5 215 0.0 3.2 0.00 0.00 0.00 61 1006.5
20260504034132 5 153 0.0 3.2 0.00 0.00 0.00 61 1006.5
20260504033628 5 205 0.0 3.2 0.00 0.00 0.00 61 1006.6
20260504033128 5 184 0.0 3.2 0.00 0.00 0.00 61 1006.6
20260504032128 5 226 0.0 3.2 0.00 0.00 0.00 61 1006.6
20260504031629 5 180 0.0 3.2 0.00 0.00 0.00 61 1006.7
20260504031126 5 235 0.0 3.2 0.00 0.00 0.00 61 1006.7
20260504030627 5 175 0.0 1.6 0.00 0.00 0.00 60 1006.7
20260504030127 5 161 0.0 1.6 0.00 0.00 0.00 60 1006.7
20260504025900 5 230 0.0 1.6 0.00 0.00 0.00 60 1006.7
20260504025127 5 230 0.0 0.0 0.00 0.00 0.00 60 1006.8
20260504024624 5 230 0.0 0.0 0.00 0.00 0.00 59 1006.9
20260504024123 5 230 0.0 0.0 0.00 0.00 0.00 58 1006.9
20260504023623 6 230 0.0 0.0 0.00 0.00 0.00 57 1006.9
20260504023119 6 230 0.0 1.6 0.00 0.00 0.00 57 1006.9
20260504022621 6 230 0.0 1.6 0.00 0.00 0.00 56 1007.0
20260504022114 6 230 0.0 1.6 0.00 0.00 0.00 55 1007.1
20260504021850 6 230 0.0 1.6 0.00 0.00 0.00 54 1007.1
20260504021114 6 229 0.0 3.2 0.00 0.00 0.00 54 1007.2
20260504020611 7 229 0.0 3.2 0.00 0.00 0.00 53 1007.2
20260504020111 7 236 0.0 3.2 0.00 0.00 0.00 52 1007.2
20260504015610 7 231 0.0 3.2 0.00 0.00 0.00 52 1007.1
20260504015112 7 245 0.0 6.4 0.00 0.00 0.00 52 1007.2
20260504014605 7 245 0.0 6.4 0.00 0.00 0.00 51 1007.2
20260504014105 7 245 0.0 8.0 0.00 0.00 0.00 52 1007.2
20260504013604 7 236 1.6 8.0 0.00 0.00 0.00 51 1007.3
20260504013334 7 224 1.6 6.4 0.00 0.00 0.00 51 1007.3
20260504012603 7 241 1.6 6.4 0.00 0.00 0.00 51 1007.3
20260504012104 7 193 0.0 4.8 0.00 0.00 0.00 53 1007.3
20260504011601 7 250 0.0 3.2 0.00 0.00 0.00 54 1007.3
20260504010829 7 240 0.0 1.6 0.00 0.00 0.00 55 1007.2
20260504010100 7 250 0.0 1.6 0.00 0.00 0.00 54 1007.1
20260504005558 7 250 0.0 1.6 0.00 0.00 0.00 55 1007.1
20260504005057 7 250 0.0 1.6 0.00 0.00 0.00 53 1007.0
20260504004555 7 250 0.0 1.6 0.00 0.00 0.00 52 1007.0
20260504004056 8 250 0.0 1.6 0.00 0.00 0.00 53 1007.0
20260504003553 8 250 0.0 1.6 0.00 0.00 0.00 52 1006.9
20260504003052 8 250 0.0 1.6 0.00 0.00 0.00 51 1006.9
20260504002546 8 250 0.0 3.2 0.00 0.00 0.00 50 1006.9
20260504002046 8 250 1.6 8.0 0.00 0.00 0.00 49 1006.9
20260504001545 9 250 1.6 8.0 0.00 0.00 0.00 48 1006.9
20260504000544 9 273 1.6 8.0 0.00 0.00 0.00 48 1006.9
20260504000045 9 264 1.6 8.0 0.00 0.00 0.00 48 1006.8
20260503235545 10 234 1.6 6.4 0.00 0.00 0.00 46 1006.8
20260503235039 10 260 1.6 6.4 0.00 0.00 0.00 46 1006.8
20260503234810 10 250 1.6 6.4 0.00 0.00 0.00 45 1006.8
20260503234039 10 240 1.6 6.4 0.00 0.00 0.00 44 1006.7
20260503233539 10 252 1.6 8.0 0.00 0.00 0.00 44 1006.7
20260503233040 10 245 1.6 9.7 0.00 0.00 0.00 44 1006.7
20260503232539 10 245 1.6 9.7 0.00 0.00 0.00 43 1006.7
20260503232039 11 186 1.6 12.9 0.00 0.00 0.00 44 1006.7
20260503231538 11 261 1.6 12.9 0.00 0.00 0.00 42 1006.7
20260503231035 11 210 1.6 8.0 0.00 0.00 0.00 42 1006.7
20260503230534 11 251 1.6 8.0 0.00 0.00 0.00 39 1006.7
20260503230032 11 243 1.6 11.3 0.00 0.00 0.00 40 1006.6
20260503225530 12 91 3.2 11.3 0.00 0.00 0.00 39 1006.6
20260503225030 12 257 3.2 12.9 0.00 0.00 0.00 39 1006.7
20260503224530 12 272 3.2 12.9 0.00 0.00 0.00 38 1006.7
20260503224031 12 302 3.2 12.9 0.00 0.00 0.00 39 1006.7
20260503223528 12 229 3.2 16.1 0.00 0.00 0.00 38 1006.7
20260503223026 12 210 3.2 16.1 0.00 0.00 0.00 37 1006.7
20260503222527 12 266 3.2 16.1 0.00 0.00 0.00 39 1006.7
20260503222026 12 210 3.2 16.1 0.00 0.00 0.00 39 1006.7
20260503221525 12 85 3.2 12.9 0.00 0.00 0.00 37 1006.7
20260503221025 12 13 1.6 9.7 0.00 0.00 0.00 39 1006.7
20260503220526 12 297 1.6 11.3 0.00 0.00 0.00 41 1006.8
20260503220022 12 257 3.2 11.3 0.00 0.00 0.00 39 1006.8
20260503215520 12 228 3.2 14.5 0.00 0.00 0.00 38 1006.7
20260503215250 13 353 3.2 14.5 0.00 0.00 0.00 37 1006.7
20260503214518 13 275 3.2 9.7 0.00 0.00 0.00 39 1006.8
20260503214245 12 250 4.8 14.5 0.00 0.05 0.00 38 1006.8
20260503213515 12 236 4.8 14.5 0.00 0.05 0.00 37 1006.8
20260503213014 12 44 3.2 12.9 0.00 0.10 0.00 37 1006.8
20260503212515 12 274 1.6 8.0 0.00 0.10 0.00 38 1006.8
20260503212008 12 234 1.6 9.7 0.00 0.10 0.00 39 1006.8
20260503211737 12 48 3.2 9.7 0.00 0.10 0.00 38 1006.8
20260503210503 13 349 3.2 14.5 0.00 0.10 0.00 39 1006.8
20260503210000 13 294 3.2 12.9 0.00 0.10 0.00 37 1006.8
20260503205501 13 141 3.2 12.9 0.00 0.10 0.00 39 1006.8
20260503204955 13 233 1.6 8.0 0.00 0.10 0.00 39 1006.8
20260503204454 12 274 1.6 9.7 0.00 0.10 0.00 40 1006.9
20260503203952 12 266 4.8 12.9 0.00 0.10 0.00 38 1006.9
20260503203450 13 280 4.8 14.5 0.00 0.10 0.00 38 1007.0
20260503202950 13 255 3.2 17.7 0.00 0.10 0.00 41 1006.9
20260503202450 12 274 3.2 17.7 0.00 0.10 0.00 42 1006.9
20260503201947 12 306 1.6 12.9 0.00 0.10 0.00 42 1006.9
20260503201721 11 287 1.6 16.1 0.00 0.10 0.00 42 1007.1
20260503200948 12 299 3.2 16.1 0.00 0.10 0.00 41 1007.1
20260503200719 12 244 4.8 16.1 0.00 0.10 0.00 40 1007.2
20260503195947 12 234 4.8 17.7 0.00 0.10 0.00 43 1007.3
20260503195448 12 208 3.2 17.7 0.00 0.10 0.00 42 1007.3
20260503194948 12 250 4.8 19.3 0.00 0.10 0.00 42 1007.3
20260503194448 12 290 4.8 19.3 0.00 0.10 0.00 42 1007.4
20260503193949 12 243 4.8 14.5 0.00 0.10 0.00 42 1007.5
20260503193444 11 273 4.8 19.3 0.00 0.10 0.00 44 1007.6
20260503192944 11 271 3.2 19.3 0.00 0.10 0.00 45 1007.6
20260503192444 12 206 3.2 14.5 0.00 0.13 0.00 43 1007.7
20260503191945 11 246 4.8 19.3 0.00 0.13 0.00 44 1007.7
20260503191445 11 256 4.8 19.3 0.00 0.13 0.00 44 1007.8
20260503190943 11 257 3.2 12.9 0.00 0.13 0.00 46 1007.9
20260503190443 10 231 3.2 14.5 0.00 0.13 0.00 46 1007.9
20260503185944 10 218 4.8 14.5 0.00 0.13 0.00 47 1008.0
20260503185444 10 190 4.8 12.9 0.00 0.13 0.00 45 1008.0
20260503184945 10 231 3.2 12.9 0.00 0.13 0.00 47 1008.1
20260503184439 10 84 4.8 12.9 0.00 0.13 0.00 46 1008.1
20260503183932 10 281 3.2 12.9 0.00 0.13 0.00 45 1008.2
20260503183426 11 215 3.2 12.9 0.00 0.13 0.00 47 1008.1
20260503182926 11 327 4.8 12.9 0.00 0.13 0.00 47 1008.2
20260503181925 11 290 4.8 17.7 0.00 0.13 0.00 46 1008.2
20260503181425 11 272 3.2 14.5 0.00 0.13 0.00 47 1008.3
20260503180926 11 179 3.2 12.9 0.00 0.15 0.00 47 1008.3
20260503180426 11 305 4.8 12.9 0.00 0.15 0.00 46 1008.4
20260503175926 11 313 4.8 14.5 0.00 0.18 0.00 49 1008.4
20260503175419 10 234 3.2 14.5 0.00 0.20 0.00 51 1008.5
20260503174920 10 271 3.2 12.9 0.00 0.23 0.00 51 1008.5
20260503174420 10 316 3.2 12.9 0.00 0.28 0.00 48 1008.5
20260503173920 10 113 3.2 14.5 0.00 0.30 0.00 50 1008.6
20260503173653 10 240 3.2 14.5 0.00 0.36 0.00 50 1008.5
20260503172920 10 79 3.2 11.3 0.00 0.43 0.00 54 1008.7
20260503172651 9 240 4.8 17.7 0.00 0.46 0.00 52 1008.7
20260503171920 10 274 3.2 17.7 0.00 0.46 0.00 50 1008.8
20260503171419 10 25 3.2 12.9 0.00 0.46 0.00 48 1008.8
20260503170911 10 223 3.2 14.5 0.00 0.46 0.00 47 1008.8
20260503170412 10 249 4.8 14.5 0.00 0.46 0.00 47 1008.9
20260503170142 10 245 3.2 11.3 0.00 0.46 0.00 48 1008.8
20260503150852 10 252 1.6 8.0 0.00 0.46 0.00 55 1010.1
20260503150352 10 338 1.6 8.0 0.00 0.46 0.00 58 1010.2
20260503140116 9 65 0.0 6.4 0.00 0.46 0.00 70 1010.8
20260503130331 7 271 0.0 3.2 0.00 0.51 0.00 77 1011.0
20260503110823 5 60 0.0 4.8 0.00 0.61 0.00 89 1010.9
20260503110554 4 276 0.0 3.2 0.00 0.61 0.00 91 1010.9